Siren, WI

12:28 AM CDT on June 29, 2017 (GMT -0500)
Burnett County

Weather History for KRZN - February, 2014

Change the Weather History Date:

Friday, February 21, 2014

  Actual Average Record
Temperature  
Mean Temperature 15 °F -  
Max Temperature 22 °F - - ()
Min Temperature 8 °F - - ()
Degree Days  
Heating Degree Days 50    
Moisture  
Dew Point 7 °F    
Average Humidity 81    
Maximum Humidity 93    
Minimum Humidity 73    
Precipitation  
Precipitation 0.00 in - - ()
Sea Level Pressure  
Sea Level Pressure 29.40 in    
Wind  
Wind Speed 17 mph (West)    
Max Wind Speed 22 mph    
Max Gust Speed 31 mph    
Visibility 5 miles    
Events Snow    
Averages and records for this station are not official NWS values.
T = Trace of Precipitation, MM = Missing Value Source: NWS Daily Summary

Daily Weather History Graph

Daily Weather History Graph

Search for Another Location

Airport or City:

Trip Planner

Search our weather history database for the weather conditions in past years. The results will help you decide how hot, cold, wet, or windy it might be!

Date:

Astronomy

Feb. 21, 2014 Rise Set
Actual Time 7:01 AM CST 5:44 PM CST
Civil Twilight 6:31 AM CST 6:15 PM CST
Nautical Twilight 5:57 AM CST 6:49 PM CST
Astronomical Twilight 5:22 AM CST 7:24 PM CST
Moon No Moon Rise 10:05 AM CST (2/21)
Length of Visible Light 11h 43m
Length of Day
10h 42m
Waning Gibbous, 60% of the Moon is Illuminated
Feb 21
Waning Gibbous
Feb 22
Last Quarter
Mar 1
New
Mar 8
First Quarter
Mar 16
Full

Hourly Weather History & Observations

Time (CST) Temp. Windchill Dew Point Humidity Pressure Visibility Wind Dir Wind Speed Gust Speed Precip Events Conditions
12:15 AM 22.8 °F 7.7 °F 21.0 °F 93% 29.16 in 1.8 mi NW 20.7 mph 26.5 mph N/A Snow Light Snow
12:35 AM 21.2 °F 6.4 °F 19.0 °F 91% 29.16 in 2.5 mi NW 18.4 mph 31.1 mph N/A Snow Light Snow
12:55 AM 20.3 °F 4.8 °F 17.6 °F 89% 29.16 in 2.5 mi NW 19.6 mph 27.6 mph N/A Snow Light Snow
1:15 AM 19.8 °F 5.0 °F 17.1 °F 89% 29.16 in 2.0 mi NW 17.3 mph 27.6 mph N/A Snow Light Snow
1:35 AM 18.5 °F 3.8 °F 15.8 °F 89% 29.16 in 2.5 mi NW 16.1 mph 24.2 mph N/A Snow Light Snow
1:55 AM 18.0 °F 2.6 °F 15.3 °F 89% 29.16 in 3.0 mi NW 17.3 mph 24.2 mph N/A Snow Light Snow
2:15 AM 16.7 °F 2.0 °F 14.0 °F 89% 29.17 in 4.0 mi WNW 15.0 mph 25.3 mph N/A Snow Light Snow
2:35 AM 15.6 °F -1.3 °F 12.9 °F 89% 29.18 in 2.5 mi WNW 19.6 mph 24.2 mph N/A Snow Light Snow
2:55 AM 14.9 °F 0.3 °F 12.2 °F 89% 29.19 in 1.8 mi WNW 13.8 mph 27.6 mph N/A Snow Light Snow
3:10 AM 14.4 °F -1.0 °F 11.8 °F 90% 29.19 in 1.2 mi WNW 15.0 mph - N/A Snow Light Snow
3:35 AM 13.1 °F -4.2 °F 10.4 °F 89% 29.21 in 1.5 mi WNW 18.4 mph 25.3 mph N/A Snow Light Snow
3:55 AM 12.7 °F -5.1 °F 9.9 °F 88% 29.21 in 1.5 mi WNW 19.6 mph 27.6 mph N/A Snow Light Snow
4:15 AM 12.2 °F -4.8 °F 9.3 °F 88% 29.22 in 1.5 mi WNW 17.3 mph 24.2 mph N/A Snow Light Snow
4:35 AM 11.8 °F -5.3 °F 9.1 °F 89% 29.23 in 1.0 mi West 17.3 mph 21.9 mph N/A Snow Light Snow
4:55 AM 11.5 °F -4.7 °F 8.6 °F 88% 29.24 in 1.2 mi WNW 15.0 mph 23.0 mph N/A Snow Light Snow
5:15 AM 11.1 °F -6.2 °F 7.9 °F 87% 29.24 in 1.5 mi WNW 17.3 mph 25.3 mph N/A Snow Light Snow
5:35 AM 10.9 °F -5.9 °F 7.7 °F 87% 29.25 in 1.8 mi West 16.1 mph 23.0 mph N/A Snow Light Snow
5:55 AM 10.4 °F -5.4 °F 7.3 °F 87% 29.25 in 2.0 mi WNW 13.8 mph 25.3 mph N/A Snow Light Snow
6:15 AM 10.2 °F -6.3 °F 6.6 °F 85% 29.26 in 3.0 mi West 15.0 mph 21.9 mph N/A Snow Light Snow
6:35 AM 10.0 °F -6.5 °F 6.6 °F 86% 29.26 in 2.5 mi WNW 15.0 mph 21.9 mph N/A Snow Light Snow
6:55 AM 10.0 °F -5.2 °F 6.3 °F 85% 29.27 in 2.0 mi West 12.7 mph 20.7 mph N/A Snow Light Snow
7:15 AM 10.0 °F -5.2 °F 6.1 °F 84% 29.28 in 2.5 mi West 12.7 mph - N/A Snow Light Snow
7:35 AM 10.2 °F -5.7 °F 5.9 °F 83% 29.30 in 3.0 mi West 13.8 mph - N/A Snow Light Snow
7:50 AM 10.2 °F -5.0 °F 6.1 °F 83% 29.30 in 2.0 mi West 12.7 mph 19.6 mph N/A Snow Light Snow
8:15 AM 10.2 °F -6.9 °F 5.9 °F 83% 29.31 in 2.5 mi West 16.1 mph 20.7 mph N/A Snow Light Snow
8:35 AM 10.4 °F -6.6 °F 6.3 °F 83% 29.31 in 2.5 mi West 16.1 mph 24.2 mph N/A Snow Light Snow
8:55 AM 10.4 °F -6.6 °F 6.4 °F 84% 29.31 in 1.2 mi West 16.1 mph 24.2 mph N/A Snow Light Snow
9:15 AM 11.1 °F -5.7 °F 6.8 °F 83% 29.32 in 1.5 mi West 16.1 mph 24.2 mph N/A Snow Light Snow
9:35 AM 11.3 °F -6.0 °F 6.8 °F 82% 29.33 in 1.5 mi West 17.3 mph 25.3 mph N/A Snow Light Snow
9:55 AM 11.3 °F -6.5 °F 7.2 °F 83% 29.33 in 1.2 mi West 18.4 mph 25.3 mph N/A Snow Light Snow
10:15 AM 11.8 °F -5.8 °F 7.5 °F 83% 29.34 in 1.0 mi West 18.4 mph 23.0 mph N/A Snow Light Snow
10:35 AM 11.7 °F -7.0 °F 7.3 °F 83% 29.35 in 1.0 mi West 20.7 mph 25.3 mph N/A Snow Light Snow
10:55 AM 11.1 °F -8.1 °F 6.6 °F 82% 29.36 in 1.0 mi West 21.9 mph 29.9 mph N/A Snow Light Snow
11:15 AM 11.1 °F -6.7 °F 5.9 °F 80% 29.37 in 1.0 mi West 18.4 mph 29.9 mph N/A Snow Light Snow
11:35 AM 11.1 °F -7.2 °F 5.7 °F 79% 29.38 in 1.5 mi West 19.6 mph 28.8 mph N/A Snow Light Snow
11:55 AM 11.7 °F -6.5 °F 5.9 °F 78% 29.38 in 3.0 mi West 19.6 mph 27.6 mph N/A   Haze
12:15 PM 11.3 °F -6.5 °F 5.9 °F 79% 29.39 in 4.0 mi West 18.4 mph 25.3 mph N/A   Haze
12:30 PM 11.3 °F -5.5 °F 5.9 °F 79% 29.39 in 3.0 mi West 16.1 mph 26.5 mph N/A   Haze
12:55 PM 11.1 °F -6.2 °F 5.7 °F 79% 29.40 in 4.0 mi West 17.3 mph 25.3 mph N/A   Haze
1:15 PM 10.8 °F -8.1 °F 5.0 °F 78% 29.41 in 5.0 mi West 20.7 mph 25.3 mph N/A   Haze
1:35 PM 10.9 °F -7.5 °F 5.0 °F 77% 29.42 in 4.0 mi West 19.6 mph 25.3 mph N/A Snow Light Snow
1:55 PM 11.3 °F -6.5 °F 5.5 °F 78% 29.43 in 4.0 mi West 18.4 mph 24.2 mph N/A Snow Light Snow
2:15 PM 11.8 °F -3.6 °F 5.9 °F 77% 29.43 in 5.0 mi West 13.8 mph 26.5 mph N/A Snow Light Snow
2:35 PM 12.2 °F -4.8 °F 6.6 °F 78% 29.44 in 10.0 mi West 17.3 mph 23.0 mph N/A Snow Light Snow
2:55 PM 12.6 °F -4.4 °F 6.8 °F 78% 29.45 in 5.0 mi WSW 17.3 mph 26.5 mph N/A Snow Light Snow
3:15 PM 12.9 °F -3.9 °F 6.8 °F 77% 29.46 in 10.0 mi West 17.3 mph 21.9 mph N/A   Overcast
3:35 PM 12.7 °F -3.6 °F 6.6 °F 77% 29.47 in 5.0 mi West 16.1 mph 28.8 mph N/A   Haze
3:55 PM 12.6 °F -4.4 °F 6.4 °F 77% 29.48 in 7.0 mi West 17.3 mph 26.5 mph N/A Snow Light Snow
4:15 PM 12.7 °F -5.1 °F 6.6 °F 77% 29.49 in 7.0 mi West 19.6 mph 26.5 mph N/A Snow Light Snow
4:35 PM 12.2 °F -6.7 °F 5.7 °F 75% 29.50 in 5.0 mi West 21.9 mph 28.8 mph N/A   Haze
4:55 PM 12.2 °F -4.8 °F 5.7 °F 75% 29.51 in 5.0 mi WSW 17.3 mph 25.3 mph N/A   Haze
5:10 PM 12.2 °F -3.1 °F 5.5 °F 75% 29.52 in 7.0 mi West 13.8 mph 24.2 mph N/A   Mostly Cloudy
5:35 PM 11.8 °F -4.8 °F 4.8 °F 73% 29.53 in 10.0 mi West 16.1 mph 24.2 mph N/A   Clear
5:55 PM 11.1 °F -5.7 °F 4.5 °F 75% 29.55 in 10.0 mi West 16.1 mph 19.6 mph N/A   Clear
6:15 PM 10.8 °F -4.3 °F 4.1 °F 75% 29.56 in 10.0 mi West 12.7 mph 20.7 mph N/A   Clear
6:35 PM 10.8 °F -5.0 °F 4.5 °F 76% 29.57 in 10.0 mi West 13.8 mph - N/A   Mostly Cloudy
6:55 PM 10.9 °F -4.1 °F 4.6 °F 76% 29.58 in 10.0 mi West 12.7 mph 20.7 mph N/A   Overcast
7:15 PM 10.9 °F -4.1 °F 4.5 °F 75% 29.58 in 10.0 mi West 12.7 mph 19.6 mph N/A   Overcast
7:35 PM 10.9 °F -5.4 °F 4.5 °F 75% 29.60 in 10.0 mi West 15.0 mph 24.2 mph N/A   Overcast
7:55 PM 10.8 °F -5.6 °F 4.1 °F 75% 29.60 in 10.0 mi West 15.0 mph 29.9 mph N/A   Overcast
8:15 PM 10.4 °F -6.0 °F 4.1 °F 76% 29.61 in 10.0 mi West 15.0 mph 21.9 mph N/A   Overcast
8:35 PM 10.2 °F -5.0 °F 3.9 °F 76% 29.62 in 10.0 mi West 12.7 mph 19.6 mph N/A   Mostly Cloudy
8:55 PM 9.5 °F -7.8 °F 3.2 °F 76% 29.63 in 10.0 mi West 16.1 mph 23.0 mph N/A   Scattered Clouds
9:15 PM 9.5 °F -7.2 °F 3.6 °F 77% 29.64 in 10.0 mi West 15.0 mph 20.7 mph N/A   Mostly Cloudy
9:35 PM 9.1 °F -4.0 °F 3.2 °F 77% 29.65 in 10.0 mi West 9.2 mph 18.4 mph N/A   Scattered Clouds
9:50 PM 8.6 °F -7.7 °F 2.8 °F 77% 29.65 in 10.0 mi West 13.8 mph 20.7 mph N/A   Scattered Clouds
10:15 PM 8.6 °F -6.3 °F 3.0 °F 78% 29.65 in 10.0 mi West 11.5 mph 18.4 mph N/A   Mostly Cloudy
10:35 PM 9.1 °F -5.6 °F 3.4 °F 77% 29.66 in 10.0 mi West 11.5 mph 18.4 mph N/A   Overcast
10:55 PM 9.3 °F -5.4 °F 3.6 °F 77% 29.66 in 10.0 mi West 11.5 mph - N/A   Overcast
11:15 PM 9.3 °F -6.8 °F 3.6 °F 77% 29.67 in 10.0 mi West 13.8 mph 18.4 mph N/A   Overcast
11:35 PM 9.1 °F -4.9 °F 3.6 °F 78% 29.67 in 10.0 mi West 10.4 mph 19.6 mph N/A   Overcast
11:55 PM 8.6 °F -6.3 °F 3.2 °F 79% 29.67 in 10.0 mi West 11.5 mph - N/A   Overcast